RH
40 34 29 28 21 22 32 40 52 52 40 30 36 34 35 33 31 35 45 61 70 66 66 82 96 99 100 100 98 91 81 78 78 79 77 84 94 99
13 10 7 5 4 1 2 10 27 48 55 21 20 26 27 33 34 35 35 34 35 47 60 67 66 77 94 100 100 98 98 90 89 89 79 81 81 88
12 10 9 8 7 6 5 4 4 20 58 4 9 7 7 11 10 24 28 34 37 33 38 52 61 66 68 82 98 99 99 99 99 97 84 96 90 77
12 11 10 9 8 7 6 5 6 10 26 9 5 6 6 6 7 9 10 23 35 38 62 52 67 66 75 75 76 85 93 98 99 99 99 96 99 84
12 13 12 11 10 9 8 7 6 7 8 11 5 5 5 5 6 9 15 16 30 37 46 54 70 94 79 80 80 78 81 81 96 99 99 99 100 96
17 18 18 17 14 12 10 8 8 8 8 9 6 5 4 4 8 13 9 22 25 42 48 50 51 62 89 83 91 92 86 74 80 70 79 99 99 100
21 25 23 20 16 14 12 10 10 9 8 8 7 6 5 4 8 15 23 29 26 48 52 56 53 48 45 42 42 75 80 86 90 80 66 93 99 99
28 26 22 18 15 13 11 13 17 19 16 12 11 10 7 8 16 23 41 55 36 59 58 47 50 46 45 40 39 62 63 94 90 97 95 97 99 98
24 20 16 14 13 13 16 23 25 22 19 17 15 12 14 22 42 47 56 80 71 72 77 56 55 46 43 40 35 41 52 75 96 100 90 99 98 99
18 15 14 14 18 25 31 32 30 26 20 13 25 75 80 91 81 44 80 88 77 76 75 61 53 45 40 39 38 51 64 62 71 99 99 91 99 99
15 16 23 25 24 32 45 38 32 24 15 12 22 41 51 38 62 76 89 97 88 77 72 66 50 55 54 42 41 52 83 96 81 97 99 99 98 98
18 20 29 33 30 37 43 44 37 24 15 15 19 26 37 50 64 95 97 97 96 86 72 85 83 80 56 41 65 68 77 77 98 96 98 98 98 98
27 30 31 33 35 44 44 44 39 22 19 23 26 32 43 64 95 97 97 96 96 95 92 91 80 87 97 93 94 98 94 99 98 97 96 98 98 98
32 37 52 50 44 43 44 43 33 23 24 28 33 46 73 91 95 96 96 97 98 92 88 100 93 93 89 96 100 100 97 98 97 97 97 97 96 97
43 67 50 43 43 42 44 45 29 24 27 31 46 75 76 89 96 96 97 96 97 96 96 96 96 96 98 98 98 97 97 97 97 96 96 96 96 97
51 64 42 42 43 44 44 38 24 26 33 41 55 60 93 94 94 95 93 97 96 97 96 96 95 95 96 96 96 96 96 96 97 96 96 96 96 96
55 46 39 40 39 41 40 29 22 27 29 33 69 88 91 91 89 95 96 95 96 97 96 96 96 97 96 96 96 96 96 96 96 96 96 96 94 54
52 50 43 43 44 45 38 23 23 29 39 80 91 95 94 93 94 96 96 96 96 96 95 95 96 96 96 96 96 96 96 97 96 95 91 43 24 22
59 55 50 48 49 45 37 27 28 38 86 95 96 95 96 97 96 96 96 96 96 96 95 95 96 96 96 95 95 94 80 49 31 24 27 35 43 48
66 61 52 50 49 45 32 30 32 81 96 96 97 98 97 98 97 96 96 96 96 96 96 95 90 71 47 30 23 23 27 35 43 45 47 50 50 50
65 57 54 52 50 40 31 33 74 96 96 96 97 96 96 96 96 96 96 96 94 71 38 23 20 25 36 45 50 50 50 50 50 49 49 50 50 51
64 57 53 52 47 33 34 66 96 96 96 97 96 96 97 97 96 95 94 79 44 28 44 56 56 54 52 53 59 64 67 70 70 72 77 82 87 89
63 55 53 50 38 36 57 97 97 97 96 96 96 96 94 74 39 29 41 59 59 58 62 74 82 86 91 95 90 93 97 92 88 85 86 82 84 84
Wind_Speed
53 53 54 54 54 54 52 52 54 59 61 58 61 58 57 55 55 56 58 56 53 51 52 51 52 55 53 62 61 63 49 50 49 49 48 47 49 51
50 50 51 51 51 51 52 52 52 54 57 54 53 55 56 58 58 58 57 56 57 55 54 53 53 52 51 54 56 61 61 57 54 49 48 50 51 54
50 51 50 51 51 51 51 52 53 54 53 55 54 53 53 54 54 56 57 57 56 54 50 48 53 53 52 50 48 48 51 58 60 64 50 51 53 56
54 55 54 54 54 54 54 55 56 56 57 62 58 58 59 58 58 59 57 55 54 54 46 41 43 49 50 50 50 50 50 49 45 51 56 55 54 55
56 55 54 54 55 55 55 55 57 59 60 61 64 62 62 62 63 61 60 58 54 53 50 45 43 44 45 46 46 47 48 48 55 44 54 52 56 55
56 54 53 53 53 55 56 56 58 61 62 64 65 64 64 63 65 65 64 58 57 52 51 48 45 47 43 39 42 41 39 45 47 55 58 57 55 55
56 55 54 52 53 54 56 57 57 59 60 62 63 64 62 62 63 62 61 60 56 52 51 47 46 45 45 44 44 43 43 43 46 44 49 54 54 52
55 54 54 53 53 53 52 52 53 53 55 54 55 56 57 55 55 55 54 54 59 49 48 48 44 45 43 37 36 38 43 41 39 44 42 48 52 56
55 55 54 53 52 53 52 51 49 47 45 46 50 49 50 46 46 48 45 47 49 45 43 47 42 43 42 40 36 39 40 44 44 38 37 41 36 47
55 52 52 51 49 49 49 48 47 45 42 43 43 37 37 36 44 44 46 48 45 42 40 46 41 42 41 40 36 34 37 38 38 35 36 35 35 43
50 47 46 46 47 46 46 48 47 44 40 39 38 38 36 36 37 42 44 44 45 43 36 42 40 44 42 39 34 33 31 31 35 30 29 32 27 37
46 46 45 46 45 43 46 45 46 43 40 36 32 32 33 32 35 39 41 43 41 40 34 38 39 37 38 35 31 29 32 29 26 35 31 28 32 45
47 46 47 47 44 44 44 44 42 42 38 36 34 33 33 35 37 38 38 35 36 38 35 37 37 35 34 32 29 32 33 32 30 30 28 31 37 39
45 46 46 48 48 45 43 41 39 37 36 35 34 34 35 35 37 38 32 31 34 36 37 39 41 39 35 35 36 36 36 33 28 26 33 34 34 31
44 41 46 48 47 43 39 38 37 35 33 33 34 35 37 39 41 36 32 31 31 31 32 34 37 39 36 35 33 29 27 28 29 29 30 30 29 29
45 47 48 46 42 39 37 34 32 31 31 32 34 37 39 41 40 35 33 28 25 24 25 24 25 27 27 27 23 22 22 23 27 27 25 27 30 26
47 49 47 43 39 35 33 32 30 29 30 32 36 40 43 41 36 30 25 20 17 16 12 7 4 7 12 13 11 14 14 17 21 23 26 25 17 18
47 47 43 38 36 34 33 32 30 31 32 35 39 43 42 38 29 19 15 12 9 6 2 1 4 4 5 7 14 18 21 23 22 18 16 18 22 24
43 42 38 34 32 31 32 32 33 32 35 40 41 37 33 25 18 12 6 4 2 3 4 4 8 15 18 15 16 18 17 15 16 19 20 21 21 21
40 38 34 30 29 30 31 32 32 33 40 39 33 26 22 18 10 4 5 8 10 10 13 16 18 15 15 14 12 14 15 15 14 15 15 17 18 18
36 33 29 27 27 29 30 31 32 39 37 29 21 18 15 10 9 12 16 19 20 18 13 12 11 10 8 8 7 7 7 9 11 12 14 15 15 15
33 28 25 25 27 28 29 30 36 35 25 18 14 16 15 19 22 24 23 18 13 10 8 6 5 5 5 4 4 6 7 9 11 12 13 14 15 17
29 25 24 24 26 28 29 33 35 22 16 13 16 19 22 19 16 14 12 10 8 7 7 5 4 4 3 3 3 5 7 8 9 11 12 11 11 12
Wind_Direction
298 297 295 294 293 292 291 288 286 287 288 290 290 289 288 285 283 282 280 279 276 272 266 265 266 265 260 262 254 258 254 254 259 266 263 253 248 248
302 300 300 299 297 295 293 291 289 287 287 291 288 287 287 288 287 285 282 280 279 275 271 269 262 261 264 262 261 257 254 254 254 254 259 257 248 248
305 303 301 300 298 296 295 293 291 289 290 290 288 288 288 287 285 282 283 283 282 279 277 271 268 265 264 264 263 265 260 258 256 256 250 252 252 247
305 304 303 301 300 299 297 296 294 294 295 292 285 286 288 287 286 285 283 280 280 280 281 275 270 266 264 265 264 263 266 263 254 248 245 245 251 247
305 305 303 301 299 297 296 294 293 290 291 292 287 285 285 287 286 285 284 282 280 277 275 271 268 267 261 264 263 263 263 263 258 261 243 243 250 248
308 307 305 304 302 299 296 295 293 291 291 291 290 288 285 283 285 287 283 281 280 278 275 275 271 264 266 267 263 263 265 265 264 267 268 241 242 244
310 309 308 306 303 300 298 296 295 294 293 293 293 294 290 285 285 287 287 284 278 280 279 278 277 271 267 264 266 265 261 262 264 266 253 251 242 248
311 310 310 307 304 300 297 296 295 297 296 297 297 295 292 291 290 291 291 290 283 279 281 279 279 277 277 274 265 261 257 258 261 262 265 249 245 241
314 313 311 310 306 303 303 303 302 300 301 301 297 296 294 294 293 291 291 291 286 286 287 281 279 278 281 278 270 259 257 252 247 255 256 241 247 245
317 316 314 315 315 314 313 310 306 307 304 300 296 299 304 297 285 292 292 292 288 285 282 281 281 278 277 277 274 265 265 261 254 262 244 258 246 241
318 318 321 319 318 317 314 313 311 307 307 301 296 291 285 288 291 292 293 292 288 285 279 282 282 283 280 277 270 265 261 258 250 259 243 244 235 233
321 324 321 317 319 320 316 317 316 315 311 304 300 295 294 292 293 293 295 292 287 285 282 285 283 283 279 275 271 274 264 271 262 258 254 243 245 235
324 323 321 320 322 321 320 320 318 317 314 310 307 306 306 305 300 301 297 286 281 279 283 280 278 275 276 279 282 279 279 273 259 265 250 238 239 242
324 322 321 320 323 321 322 322 321 318 316 314 311 310 309 310 306 305 298 290 280 277 274 273 274 272 267 269 269 270 272 271 255 246 234 234 237 232
323 320 317 321 322 322 324 325 322 319 317 316 315 315 315 312 313 310 303 296 287 284 281 278 273 271 268 263 261 256 253 246 245 229 227 231 223 212
326 317 323 323 323 324 324 325 325 324 322 320 318 315 315 315 315 312 308 299 293 293 287 276 269 261 252 247 238 229 233 240 231 223 208 206 201 191
320 320 324 326 327 327 328 330 329 327 325 323 320 319 318 316 316 312 304 297 296 282 278 274 281 242 228 206 198 204 194 194 192 192 199 188 171 186
322 322 327 329 330 331 333 333 335 334 332 328 322 321 320 318 317 311 304 301 274 246 273 39 31 95 141 163 150 148 155 167 168 164 155 178 192 197
324 327 331 332 333 334 335 336 338 339 334 329 327 325 322 326 324 320 314 235 174 112 84 99 146 140 124 114 111 122 128 143 163 175 182 188 195 201
330 332 333 334 335 337 338 339 341 338 334 333 334 333 344 344 350 11 126 112 103 106 117 101 84 88 111 122 135 147 155 161 171 185 197 206 211 214
334 335 336 336 338 341 340 343 342 339 338 341 346 2 10 29 72 93 96 99 95 86 95 108 115 119 122 132 146 162 174 184 191 197 202 208 211 211
337 337 339 341 343 343 345 345 342 342 349 3 19 41 62 80 87 86 83 88 97 107 109 98 93 96 106 130 150 166 183 195 204 210 215 220 224 226
338 340 343 345 346 347 349 345 345 355 12 32 64 75 70 69 77 85 86 86 85 81 79 79 85 95 114 138 148 168 182 194 198 201 206 210 210 204